| time (UTC) | temp F | wind direction | speed knots | gust knots | rain 1hr in | rain 24hr in | rain mn in | humidity % | barometer mb |
| 20260505210656 | 84 | 168 | 2.6 | 6.1 | 0.00 | 0.00 | 0.00 | 77 | 1007.1 |
| 20260505210153 | 85 | 128 | 2.6 | 4.3 | 0.00 | 0.00 | 0.00 | 76 | 1007.6 |
| 20260505205650 | 84 | 114 | 6.1 | 7.8 | 0.00 | 0.00 | 0.00 | 76 | 1007.2 |
| 20260505205148 | 84 | 135 | 1.7 | 2.6 | 0.00 | 0.00 | 0.00 | 77 | 1007.9 |
| 20260505204645 | 84 | 246 | 2.6 | 5.2 | 0.00 | 0.00 | 0.00 | 77 | 1007.8 |
| 20260505204143 | 84 | 96 | 3.5 | 4.3 | 0.00 | 0.00 | 0.00 | 78 | 1007.7 |
| 20260505203640 | 84 | 173 | 2.6 | 5.2 | 0.00 | 0.00 | 0.00 | 77 | 1007.7 |
| 20260505203136 | 83 | 180 | 8.7 | 11.3 | 0.00 | 0.00 | 0.00 | 78 | 1007.3 |
| 20260505202632 | 83 | 169 | 3.5 | 4.3 | 0.00 | 0.00 | 0.00 | 79 | 1007.6 |
| 20260505202128 | 82 | 208 | 2.6 | 4.3 | 0.00 | 0.00 | 0.00 | 79 | 1007.3 |
| 20260505201625 | 83 | 207 | 2.6 | 4.3 | 0.00 | 0.00 | 0.00 | 78 | 1007.6 |
| 20260505201123 | 83 | 208 | 4.3 | 6.1 | 0.00 | 0.00 | 0.00 | 77 | 1007.7 |
| 20260505200621 | 84 | 182 | 2.6 | 4.3 | 0.00 | 0.00 | 0.00 | 77 | 1007.8 |
| 20260505200118 | 83 | 176 | 4.3 | 5.2 | 0.00 | 0.00 | 0.00 | 78 | 1008.0 |
| 20260505195614 | 83 | 156 | 0.9 | 1.7 | 0.00 | 0.00 | 0.00 | 77 | 1008.1 |
| 20260505195111 | 84 | 287 | 2.6 | 5.2 | 0.00 | 0.00 | 0.00 | 77 | 1007.8 |
| 20260505194608 | 84 | 285 | 2.6 | 2.6 | 0.00 | 0.00 | 0.00 | 78 | 1007.8 |
| 20260505194104 | 83 | 190 | 6.1 | 7.8 | 0.00 | 0.00 | 0.00 | 77 | 1008.0 |
| 20260505193601 | 83 | 182 | 0.9 | 0.9 | 0.00 | 0.00 | 0.00 | 79 | 1007.9 |
| 20260505193058 | 83 | 206 | 4.3 | 7.0 | 0.00 | 0.00 | 0.00 | 77 | 1008.3 |
| 20260505192557 | 82 | 227 | 5.2 | 8.7 | 0.00 | 0.00 | 0.00 | 78 | 1008.3 |
| 20260505192054 | 83 | 176 | 5.2 | 7.0 | 0.00 | 0.00 | 0.00 | 78 | 1008.2 |
| 20260505191552 | 82 | 129 | 3.5 | 5.2 | 0.00 | 0.00 | 0.00 | 79 | 1007.8 |
| 20260505191049 | 82 | 166 | 7.0 | 7.8 | 0.00 | 0.00 | 0.00 | 78 | 1008.2 |
| 20260505190544 | 82 | 160 | 5.2 | 7.8 | 0.00 | 0.00 | 0.00 | 78 | 1008.1 |
| 20260505190040 | 82 | 276 | 2.6 | 6.1 | 0.00 | 0.00 | 0.00 | 79 | 1008.3 |
| 20260505185537 | 82 | 167 | 3.5 | 5.2 | 0.00 | 0.00 | 0.00 | 79 | 1008.1 |
| 20260505185033 | 82 | 157 | 6.1 | 7.8 | 0.00 | 0.00 | 0.00 | 78 | 1008.3 |
| 20260505184530 | 82 | 134 | 1.7 | 2.6 | 0.00 | 0.00 | 0.00 | 80 | 1008.5 |
| 20260505184027 | 82 | 135 | 1.7 | 2.6 | 0.00 | 0.00 | 0.00 | 80 | 1008.5 |
| 20260505183524 | 81 | 199 | 7.0 | 11.3 | 0.00 | 0.00 | 0.00 | 80 | 1008.7 |
| 20260505183021 | 81 | 64 | 2.6 | 2.6 | 0.00 | 0.00 | 0.00 | 80 | 1008.5 |
| 20260505182518 | 81 | 147 | 7.0 | 8.7 | 0.00 | 0.00 | 0.00 | 81 | 1008.5 |
| 20260505182014 | 80 | 232 | 4.3 | 7.0 | 0.00 | 0.00 | 0.00 | 82 | 1008.5 |
| 20260505181511 | 80 | 152 | 2.6 | 2.6 | 0.00 | 0.00 | 0.00 | 81 | 1009.1 |
| 20260505181009 | 81 | 165 | 3.5 | 4.3 | 0.00 | 0.00 | 0.00 | 80 | 1009.2 |
| 20260505180504 | 81 | 147 | 0.9 | 1.7 | 0.00 | 0.00 | 0.00 | 81 | 1009.0 |
| 20260505180002 | 81 | 133 | 5.2 | 7.0 | 0.00 | 0.00 | 0.00 | 80 | 1009.1 |
| 20260505175457 | 81 | 166 | 4.3 | 8.7 | 0.00 | 0.00 | 0.00 | 82 | 1009.0 |
| 20260505174954 | 80 | 142 | 0.9 | 0.9 | 0.00 | 0.00 | 0.00 | 82 | 1009.0 |
| 20260505174451 | 80 | 147 | 4.3 | 7.0 | 0.00 | 0.00 | 0.00 | 82 | 1009.0 |
| 20260505173947 | 80 | 230 | 2.6 | 5.2 | 0.00 | 0.00 | 0.00 | 83 | 1009.6 |
| 20260505173444 | 79 | 303 | 2.6 | 2.6 | 0.00 | 0.00 | 0.00 | 85 | 1009.6 |
| 20260505172941 | 78 | 188 | 1.7 | 2.6 | 0.00 | 0.00 | 0.00 | 86 | 1009.6 |
| 20260505172439 | 78 | 182 | 4.3 | 6.1 | 0.00 | 0.00 | 0.00 | 86 | 1009.5 |
| 20260505171938 | 78 | 156 | 1.7 | 4.3 | 0.00 | 0.00 | 0.00 | 87 | 1009.6 |
| 20260505171435 | 78 | 159 | 3.5 | 6.1 | 0.00 | 0.00 | 0.00 | 87 | 1009.2 |
| 20260505170932 | 78 | 209 | 2.6 | 2.6 | 0.00 | 0.00 | 0.00 | 87 | 1009.2 |
| 20260505170429 | 77 | 179 | 2.6 | 2.6 | 0.00 | 0.00 | 0.00 | 88 | 1009.1 |
| 20260505165924 | 77 | 140 | 0.9 | 0.9 | 0.00 | 0.00 | 0.00 | 89 | 1009.6 |
| 20260505165420 | 76 | 140 | 1.7 | 2.6 | 0.00 | 0.00 | 0.00 | 89 | 1009.4 |
| 20260505164916 | 77 | 159 | 4.3 | 6.1 | 0.00 | 0.00 | 0.00 | 89 | 1009.5 |
| 20260505164413 | 77 | 214 | 1.7 | 1.7 | 0.00 | 0.00 | 0.00 | 88 | 1009.3 |
| 20260505163911 | 77 | 184 | 0.9 | 0.9 | 0.00 | 0.00 | 0.00 | 88 | 1009.3 |
| 20260505163410 | 77 | 172 | 2.6 | 5.2 | 0.00 | 0.00 | 0.00 | 88 | 1009.0 |
| 20260505162908 | 76 | 158 | 3.5 | 4.3 | 0.00 | 0.00 | 0.00 | 89 | 1009.3 |
| 20260505162403 | 76 | 114 | 4.3 | 6.1 | 0.00 | 0.00 | 0.00 | 89 | 1009.6 |
| 20260505161900 | 76 | 144 | 2.6 | 2.6 | 0.00 | 0.00 | 0.00 | 90 | 1009.5 |
| 20260505161357 | 75 | 150 | 2.6 | 2.6 | 0.00 | 0.00 | 0.00 | 90 | 1009.6 |
| 20260505160854 | 75 | 156 | 4.3 | 5.2 | 0.00 | 0.00 | 0.00 | 90 | 1009.7 |
| 20260505160353 | 75 | 76 | 3.5 | 5.2 | 0.00 | 0.00 | 0.00 | 91 | 1009.5 |
| 20260505153331 | 74 | 172 | 5.2 | 7.8 | 0.00 | 0.00 | 0.00 | 93 | 1009.6 |
| 20260505152828 | 73 | 206 | 2.6 | 4.3 | 0.00 | 0.00 | 0.00 | 94 | 1009.5 |
| 20260505152325 | 73 | 157 | 2.6 | 6.1 | 0.00 | 0.00 | 0.00 | 94 | 1009.4 |
| 20260505151820 | 73 | 146 | 3.5 | 5.2 | 0.00 | 0.00 | 0.00 | 94 | 1009.5 |
| 20260505151317 | 73 | 180 | 4.3 | 6.1 | 0.00 | 0.00 | 0.00 | 94 | 1009.3 |
| 20260505150813 | 73 | 198 | 3.5 | 4.3 | 0.00 | 0.00 | 0.00 | 94 | 1009.5 |
| 20260505150311 | 73 | 39 | 1.7 | 1.7 | 0.00 | 0.00 | 0.00 | 94 | 1009.6 |
| 20260505140235 | 72 | 175 | 2.6 | 4.3 | 0.00 | 0.00 | 0.00 | 94 | 1009.3 |
| 20260505130159 | 71 | 158 | 2.6 | 5.2 | 0.00 | 0.00 | 0.00 | 95 | 1008.7 |
| 20260505124649 | 70 | 155 | 4.3 | 9.6 | 0.00 | 0.00 | 0.00 | 95 | 1008.7 |
| 20260505124145 | 70 | 205 | 2.6 | 4.3 | 0.00 | 0.00 | 0.00 | 95 | 1008.7 |
| 20260505123641 | 70 | 154 | 1.7 | 2.6 | 0.00 | 0.00 | 0.00 | 95 | 1008.4 |
| 20260505123139 | 70 | 161 | 4.3 | 5.2 | 0.00 | 0.00 | 0.00 | 95 | 1008.5 |
| 20260505122635 | 70 | 171 | 2.6 | 4.3 | 0.00 | 0.00 | 0.00 | 95 | 1008.5 |
| 20260505122132 | 70 | 189 | 2.6 | 2.6 | 0.00 | 0.00 | 0.00 | 95 | 1008.1 |
| 20260505121628 | 70 | 178 | 2.6 | 4.3 | 0.00 | 0.00 | 0.00 | 95 | 1008.1 |
| 20260505121125 | 70 | 203 | 1.7 | 4.3 | 0.00 | 0.00 | 0.00 | 95 | 1008.1 |
| 20260505120621 | 70 | 146 | 2.6 | 4.3 | 0.00 | 0.00 | 0.00 | 94 | 1008.2 |
| 20260505120118 | 70 | 323 | 2.6 | 2.6 | 0.00 | 0.00 | 0.00 | 94 | 1008.4 |
| 20260505115612 | 70 | 173 | 2.6 | 2.6 | 0.00 | 0.00 | 0.00 | 94 | 1008.0 |
| 20260505115110 | 70 | 177 | 2.6 | 4.3 | 0.00 | 0.00 | 0.00 | 94 | 1007.9 |
| 20260505114606 | 70 | 179 | 2.6 | 5.2 | 0.00 | 0.00 | 0.00 | 94 | 1007.9 |
| 20260505114103 | 70 | 182 | 3.5 | 5.2 | 0.00 | 0.00 | 0.00 | 94 | 1008.0 |
| 20260505113559 | 70 | 173 | 3.5 | 4.3 | 0.00 | 0.00 | 0.00 | 94 | 1007.8 |
| 20260505113056 | 70 | 168 | 1.7 | 2.6 | 0.00 | 0.00 | 0.00 | 94 | 1007.7 |
| 20260505112552 | 70 | 214 | 2.6 | 2.6 | 0.00 | 0.00 | 0.00 | 94 | 1007.9 |
| 20260505112050 | 70 | 157 | 4.3 | 5.2 | 0.00 | 0.00 | 0.00 | 94 | 1008.0 |
| 20260505111544 | 70 | 160 | 3.5 | 4.3 | 0.00 | 0.00 | 0.00 | 94 | 1007.6 |
| 20260505111040 | 70 | 171 | 1.7 | 1.7 | 0.00 | 0.00 | 0.00 | 94 | 1007.8 |
| 20260505110537 | 70 | 260 | 2.6 | 4.3 | 0.00 | 0.00 | 0.00 | 94 | 1007.8 |
| 20260505102009 | 70 | 211 | 3.5 | 4.3 | 0.00 | 0.00 | 0.00 | 95 | 1008.2 |
| 20260505101508 | 70 | 171 | 3.5 | 5.2 | 0.00 | 0.00 | 0.00 | 95 | 1008.2 |
| 20260505101004 | 70 | 155 | 1.7 | 1.7 | 0.00 | 0.00 | 0.00 | 95 | 1008.0 |
| 20260505100501 | 70 | 179 | 2.6 | 4.3 | 0.00 | 0.00 | 0.00 | 95 | 1007.9 |
| 20260505095957 | 70 | 159 | 3.5 | 5.2 | 0.00 | 0.00 | 0.00 | 95 | 1008.1 |
| 20260505095454 | 70 | 95 | 0.0 | 0.9 | 0.00 | 0.00 | 0.00 | 95 | 1008.1 |
| 20260505094950 | 70 | 165 | 2.6 | 2.6 | 0.00 | 0.00 | 0.00 | 94 | 1008.1 |
| 20260505094447 | 70 | 171 | 0.9 | 1.7 | 0.00 | 0.00 | 0.00 | 94 | 1008.1 |
| 20260505093943 | 70 | 199 | 1.7 | 5.2 | 0.00 | 0.00 | 0.00 | 94 | 1008.2 |
| 20260505093440 | 70 | 135 | 0.0 | 0.9 | 0.00 | 0.00 | 0.00 | 94 | 1008.1 |
| 20260505092937 | 70 | 142 | 3.5 | 4.3 | 0.00 | 0.00 | 0.00 | 94 | 1008.1 |
| 20260505092435 | 70 | 144 | 4.3 | 7.8 | 0.00 | 0.00 | 0.00 | 94 | 1008.0 |
| 20260505091932 | 70 | 202 | 5.2 | 7.0 | 0.00 | 0.00 | 0.00 | 94 | 1007.9 |
| 20260505091430 | 70 | 179 | 4.3 | 6.1 | 0.00 | 0.00 | 0.00 | 94 | 1008.0 |
| 20260505090927 | 70 | 125 | 4.3 | 9.6 | 0.00 | 0.00 | 0.00 | 94 | 1008.0 |
| 20260505090425 | 70 | 144 | 7.0 | 7.8 | 0.00 | 0.00 | 0.00 | 94 | 1008.1 |
| 20260505085922 | 70 | 169 | 4.3 | 4.3 | 0.00 | 0.00 | 0.00 | 94 | 1008.1 |
| 20260505085420 | 70 | 161 | 7.0 | 8.7 | 0.00 | 0.00 | 0.00 | 94 | 1008.4 |
| 20260505084918 | 70 | 224 | 6.1 | 8.7 | 0.00 | 0.00 | 0.00 | 94 | 1007.8 |
| 20260505084416 | 70 | 204 | 6.1 | 7.0 | 0.00 | 0.00 | 0.00 | 94 | 1008.2 |
| 20260505083914 | 70 | 178 | 4.3 | 5.2 | 0.00 | 0.00 | 0.00 | 94 | 1008.4 |
| 20260505083411 | 70 | 190 | 4.3 | 5.2 | 0.00 | 0.00 | 0.00 | 94 | 1008.1 |
| 20260505082907 | 70 | 139 | 2.6 | 4.3 | 0.00 | 0.00 | 0.00 | 94 | 1008.2 |
| 20260505082403 | 70 | 176 | 2.6 | 4.3 | 0.00 | 0.00 | 0.00 | 94 | 1008.6 |
| 20260505081900 | 70 | 173 | 2.6 | 4.3 | 0.00 | 0.00 | 0.00 | 94 | 1008.9 |
| 20260505081357 | 70 | 160 | 6.1 | 7.8 | 0.00 | 0.00 | 0.00 | 94 | 1008.6 |
| 20260505080853 | 70 | 154 | 1.7 | 2.6 | 0.00 | 0.00 | 0.00 | 94 | 1008.9 |
| 20260505080349 | 70 | 161 | 4.3 | 7.0 | 0.00 | 0.00 | 0.00 | 94 | 1008.9 |
| 20260505075845 | 70 | 176 | 2.6 | 4.3 | 0.00 | 0.00 | 0.00 | 93 | 1008.8 |
| 20260505075342 | 70 | 141 | 7.0 | 8.7 | 0.00 | 0.00 | 0.00 | 93 | 1009.2 |
| 20260505074839 | 70 | 144 | 4.3 | 7.0 | 0.00 | 0.00 | 0.00 | 93 | 1009.3 |
| 20260505074337 | 70 | 135 | 4.3 | 6.1 | 0.00 | 0.00 | 0.00 | 93 | 1009.4 |
| 20260505073834 | 70 | 152 | 2.6 | 4.3 | 0.00 | 0.00 | 0.00 | 93 | 1009.2 |
| 20260505073332 | 70 | 154 | 3.5 | 5.2 | 0.00 | 0.00 | 0.00 | 93 | 1009.1 |
| 20260505072828 | 70 | 197 | 2.6 | 5.2 | 0.00 | 0.00 | 0.00 | 93 | 1009.2 |
| 20260505072324 | 70 | 127 | 4.3 | 5.2 | 0.00 | 0.00 | 0.00 | 93 | 1009.6 |
| 20260505071820 | 70 | 143 | 4.3 | 6.1 | 0.00 | 0.00 | 0.00 | 93 | 1009.6 |
| 20260505071317 | 70 | 203 | 4.3 | 7.8 | 0.00 | 0.00 | 0.00 | 93 | 1009.7 |
| 20260505070816 | 70 | 211 | 4.3 | 5.2 | 0.00 | 0.00 | 0.00 | 93 | 1009.9 |
| 20260505070312 | 70 | 164 | 2.6 | 4.3 | 0.00 | 0.00 | 0.00 | 93 | 1009.7 |
| 20260505065807 | 70 | 152 | 4.3 | 6.1 | 0.00 | 0.00 | 0.00 | 93 | 1009.6 |
| 20260505065304 | 70 | 171 | 4.3 | 7.0 | 0.00 | 0.00 | 0.00 | 93 | 1009.5 |
| 20260505064801 | 70 | 209 | 2.6 | 2.6 | 0.00 | 0.00 | 0.00 | 93 | 1009.7 |
| 20260505064258 | 71 | 186 | 0.9 | 0.9 | 0.00 | 0.00 | 0.00 | 93 | 1010.1 |
| 20260505063756 | 71 | 141 | 2.6 | 2.6 | 0.00 | 0.00 | 0.00 | 93 | 1009.8 |
| 20260505063252 | 71 | 169 | 0.9 | 1.7 | 0.00 | 0.00 | 0.00 | 93 | 1010.2 |
| 20260505062749 | 71 | 152 | 2.6 | 5.2 | 0.00 | 0.00 | 0.00 | 93 | 1010.2 |
| 20260505062246 | 71 | 168 | 4.3 | 5.2 | 0.00 | 0.00 | 0.00 | 93 | 1010.2 |
| 20260505061743 | 71 | 151 | 1.7 | 1.7 | 0.00 | 0.00 | 0.00 | 92 | 1010.1 |
| 20260505061241 | 71 | 182 | 4.3 | 5.2 | 0.00 | 0.00 | 0.00 | 92 | 1009.8 |
| 20260505060738 | 71 | 171 | 0.9 | 1.7 | 0.00 | 0.00 | 0.00 | 92 | 1010.2 |
| 20260505060235 | 71 | 165 | 1.7 | 1.7 | 0.00 | 0.00 | 0.00 | 92 | 1010.2 |
| 20260505055730 | 71 | 184 | 3.5 | 5.2 | 0.00 | 0.00 | 0.00 | 92 | 1010.2 |
| 20260505055227 | 71 | 213 | 2.6 | 2.6 | 0.00 | 0.00 | 0.00 | 92 | 1009.9 |
| 20260505054724 | 71 | 187 | 1.7 | 2.6 | 0.00 | 0.00 | 0.00 | 92 | 1010.2 |
| 20260505054222 | 71 | 163 | 4.3 | 6.1 | 0.00 | 0.00 | 0.00 | 92 | 1010.2 |
| 20260505053720 | 71 | 176 | 1.7 | 1.7 | 0.00 | 0.00 | 0.00 | 92 | 1009.9 |
| 20260505053216 | 71 | 159 | 3.5 | 5.2 | 0.00 | 0.00 | 0.00 | 92 | 1010.1 |
| 20260505052714 | 71 | 171 | 2.6 | 2.6 | 0.00 | 0.00 | 0.00 | 91 | 1010.0 |
| 20260505052210 | 71 | 175 | 1.7 | 1.7 | 0.00 | 0.00 | 0.00 | 91 | 1010.0 |
| 20260505051708 | 71 | 149 | 1.7 | 1.7 | 0.00 | 0.00 | 0.00 | 91 | 1010.2 |
| 20260505051206 | 71 | 140 | 3.5 | 5.2 | 0.00 | 0.00 | 0.00 | 90 | 1010.2 |
| 20260505050703 | 71 | 166 | 2.6 | 2.6 | 0.00 | 0.00 | 0.00 | 90 | 1010.1 |
| 20260505050201 | 72 | 189 | 1.7 | 1.7 | 0.00 | 0.00 | 0.00 | 89 | 1009.8 |
| 20260505041631 | 72 | 138 | 3.5 | 5.2 | 0.00 | 0.00 | 0.00 | 87 | 1010.0 |
| 20260505041128 | 72 | 161 | 1.7 | 2.6 | 0.00 | 0.00 | 0.00 | 87 | 1010.0 |
| 20260505040625 | 73 | 178 | 2.6 | 2.6 | 0.00 | 0.00 | 0.00 | 87 | 1009.9 |
| 20260505040122 | 73 | 132 | 1.7 | 1.7 | 0.00 | 0.00 | 0.00 | 86 | 1010.0 |
| 20260505035618 | 73 | 160 | 2.6 | 2.6 | 0.00 | 0.00 | 0.00 | 86 | 1010.1 |
| 20260505035115 | 73 | 155 | 3.5 | 4.3 | 0.00 | 0.00 | 0.00 | 86 | 1010.0 |
| 20260505034612 | 73 | 187 | 2.6 | 4.3 | 0.00 | 0.00 | 0.00 | 85 | 1009.9 |
| 20260505034108 | 73 | 196 | 2.6 | 2.6 | 0.00 | 0.00 | 0.00 | 85 | 1009.9 |
| 20260505033605 | 73 | 167 | 1.7 | 2.6 | 0.00 | 0.00 | 0.00 | 85 | 1009.5 |
| 20260505033104 | 73 | 140 | 1.7 | 1.7 | 0.00 | 0.00 | 0.00 | 84 | 1009.5 |
| 20260505032601 | 73 | 160 | 1.7 | 2.6 | 0.00 | 0.00 | 0.00 | 84 | 1010.1 |
| 20260505032057 | 74 | 150 | 1.7 | 1.7 | 0.00 | 0.00 | 0.00 | 83 | 1010.0 |
| 20260505031555 | 74 | 153 | 2.6 | 5.2 | 0.00 | 0.00 | 0.00 | 83 | 1010.0 |
| 20260505031051 | 74 | 201 | 4.3 | 6.1 | 0.00 | 0.00 | 0.00 | 83 | 1009.9 |
| 20260505030548 | 74 | 127 | 1.7 | 2.6 | 0.00 | 0.00 | 0.00 | 83 | 1009.9 |
| 20260505030044 | 74 | 185 | 2.6 | 2.6 | 0.00 | 0.00 | 0.00 | 82 | 1009.7 |
| 20260505025540 | 74 | 158 | 0.9 | 1.7 | 0.00 | 0.00 | 0.00 | 82 | 1009.9 |
| 20260505025039 | 74 | 171 | 0.9 | 1.7 | 0.00 | 0.00 | 0.00 | 82 | 1009.8 |
| 20260505024536 | 74 | 174 | 0.9 | 1.7 | 0.00 | 0.00 | 0.00 | 81 | 1009.8 |
| 20260505024032 | 75 | 169 | 1.7 | 2.6 | 0.00 | 0.00 | 0.00 | 81 | 1009.6 |
| 20260505023530 | 75 | 170 | 2.6 | 2.6 | 0.00 | 0.00 | 0.00 | 80 | 1009.9 |
| 20260505023027 | 75 | 216 | 2.6 | 2.6 | 0.00 | 0.00 | 0.00 | 80 | 1009.5 |
| 20260505022525 | 75 | 168 | 1.7 | 1.7 | 0.00 | 0.00 | 0.00 | 80 | 1009.4 |
| 20260505022022 | 75 | 167 | 4.3 | 6.1 | 0.00 | 0.00 | 0.00 | 80 | 1009.5 |
| 20260505021518 | 75 | 163 | 2.6 | 2.6 | 0.00 | 0.00 | 0.00 | 80 | 1009.7 |
| 20260505021015 | 75 | 163 | 3.5 | 5.2 | 0.00 | 0.00 | 0.00 | 79 | 1009.5 |
| 20260505020514 | 75 | 207 | 0.9 | 1.7 | 0.00 | 0.00 | 0.00 | 79 | 1009.4 |
| 20260505020012 | 75 | 140 | 3.5 | 4.3 | 0.00 | 0.00 | 0.00 | 79 | 1009.2 |
| 20260505015509 | 75 | 203 | 2.6 | 2.6 | 0.00 | 0.00 | 0.00 | 78 | 1009.3 |
| 20260505015006 | 75 | 181 | 5.2 | 6.1 | 0.00 | 0.00 | 0.00 | 78 | 1009.2 |
| 20260505014503 | 75 | 159 | 2.6 | 4.3 | 0.00 | 0.00 | 0.00 | 78 | 1009.2 |
| 20260505014000 | 75 | 157 | 1.7 | 2.6 | 0.00 | 0.00 | 0.00 | 78 | 1009.2 |
| 20260505013457 | 75 | 181 | 3.5 | 5.2 | 0.00 | 0.00 | 0.00 | 78 | 1009.2 |
| 20260505012954 | 76 | 178 | 1.7 | 2.6 | 0.00 | 0.00 | 0.00 | 78 | 1009.3 |
| 20260505012452 | 76 | 152 | 2.6 | 4.3 | 0.00 | 0.00 | 0.00 | 78 | 1009.4 |
| 20260505011949 | 76 | 188 | 2.6 | 2.6 | 0.00 | 0.00 | 0.00 | 78 | 1009.3 |
| 20260505011445 | 76 | 170 | 1.7 | 1.7 | 0.00 | 0.00 | 0.00 | 78 | 1009.4 |
| 20260505010942 | 76 | 148 | 2.6 | 4.3 | 0.00 | 0.00 | 0.00 | 77 | 1009.4 |
| 20260505010437 | 76 | 174 | 0.9 | 0.9 | 0.00 | 0.00 | 0.00 | 77 | 1009.1 |
| 20260505005934 | 77 | 199 | 2.6 | 4.3 | 0.00 | 0.00 | 0.00 | 76 | 1009.1 |
| 20260505005431 | 77 | 207 | 3.5 | 4.3 | 0.00 | 0.00 | 0.00 | 75 | 1009.3 |
| 20260505004928 | 77 | 163 | 1.7 | 2.6 | 0.00 | 0.00 | 0.00 | 75 | 1009.4 |
| 20260505004425 | 77 | 173 | 0.9 | 0.9 | 0.00 | 0.00 | 0.00 | 75 | 1009.4 |
| 20260505003922 | 77 | 202 | 1.7 | 2.6 | 0.00 | 0.00 | 0.00 | 75 | 1009.4 |
| 20260505003419 | 78 | 191 | 1.7 | 4.3 | 0.00 | 0.00 | 0.00 | 74 | 1009.3 |
| 20260505002915 | 78 | 211 | 3.5 | 4.3 | 0.00 | 0.00 | 0.00 | 73 | 1009.5 |
| 20260505002411 | 78 | 191 | 5.2 | 6.1 | 0.00 | 0.00 | 0.00 | 73 | 1009.3 |
| 20260505001910 | 78 | 163 | 5.2 | 6.1 | 0.00 | 0.00 | 0.00 | 72 | 1009.5 |
| 20260505001407 | 78 | 153 | 1.7 | 2.6 | 0.00 | 0.00 | 0.00 | 72 | 1009.4 |
| 20260505000904 | 79 | 212 | 3.5 | 4.3 | 0.00 | 0.00 | 0.00 | 71 | 1009.2 |
| 20260505000402 | 79 | 165 | 4.3 | 8.7 | 0.00 | 0.00 | 0.00 | 70 | 1009.6 |
| 20260504235858 | 80 | 168 | 7.0 | 8.7 | 0.00 | 0.00 | 0.00 | 70 | 1009.5 |
| 20260504235355 | 80 | 164 | 1.7 | 1.7 | 0.00 | 0.00 | 0.00 | 70 | 1009.6 |
| 20260504234851 | 80 | 148 | 0.9 | 1.7 | 0.00 | 0.00 | 0.00 | 70 | 1009.8 |
| 20260504234349 | 80 | 190 | 1.7 | 2.6 | 0.00 | 0.00 | 0.00 | 70 | 1009.6 |
| 20260504233846 | 80 | 155 | 2.6 | 5.2 | 0.00 | 0.00 | 0.00 | 68 | 1009.5 |
| 20260504233341 | 81 | 187 | 2.6 | 4.3 | 0.00 | 0.00 | 0.00 | 68 | 1009.6 |
| 20260504232838 | 80 | 199 | 4.3 | 5.2 | 0.00 | 0.00 | 0.00 | 69 | 1009.8 |
| 20260504232336 | 80 | 196 | 3.5 | 5.2 | 0.00 | 0.00 | 0.00 | 69 | 1010.0 |
| 20260504231832 | 80 | 173 | 2.6 | 2.6 | 0.00 | 0.00 | 0.00 | 70 | 1010.0 |
| 20260504231329 | 81 | 188 | 4.3 | 5.2 | 0.00 | 0.00 | 0.00 | 68 | 1009.6 |
| 20260504230825 | 82 | 168 | 6.1 | 7.8 | 0.00 | 0.00 | 0.00 | 68 | 1009.7 |
| 20260504230323 | 81 | 194 | 4.3 | 8.7 | 0.00 | 0.00 | 0.00 | 69 | 1010.2 |
| 20260504225822 | 80 | 265 | 2.6 | 4.3 | 0.00 | 0.00 | 0.00 | 69 | 1010.1 |
| 20260504225317 | 80 | 159 | 4.3 | 6.1 | 0.00 | 0.00 | 0.00 | 70 | 1010.2 |
| 20260504224815 | 80 | 142 | 3.5 | 7.0 | 0.00 | 0.00 | 0.00 | 71 | 1010.0 |
| 20260504224312 | 80 | 209 | 1.7 | 2.6 | 0.00 | 0.00 | 0.00 | 70 | 1009.9 |
| 20260504223809 | 80 | 200 | 2.6 | 2.6 | 0.00 | 0.00 | 0.00 | 70 | 1010.0 |
| 20260504223304 | 79 | 185 | 3.5 | 5.2 | 0.00 | 0.00 | 0.00 | 70 | 1010.3 |
| 20260504222801 | 80 | 188 | 4.3 | 6.1 | 0.00 | 0.00 | 0.00 | 70 | 1010.4 |
| 20260504222258 | 80 | 127 | 0.9 | 1.7 | 0.00 | 0.00 | 0.00 | 71 | 1010.4 |
| 20260504221756 | 79 | 170 | 3.5 | 5.2 | 0.00 | 0.00 | 0.00 | 70 | 1010.4 |
| 20260504221253 | 80 | 221 | 1.7 | 1.7 | 0.00 | 0.00 | 0.00 | 69 | 1010.3 |
| 20260504220749 | 80 | 175 | 0.9 | 1.7 | 0.00 | 0.00 | 0.00 | 69 | 1010.6 |
| 20260504220246 | 80 | 135 | 5.2 | 7.0 | 0.00 | 0.00 | 0.00 | 67 | 1010.7 |
| 20260504215744 | 81 | 133 | 2.6 | 4.3 | 0.00 | 0.00 | 0.00 | 68 | 1010.8 |
| 20260504215240 | 81 | 160 | 7.8 | 8.7 | 0.00 | 0.00 | 0.00 | 67 | 1010.6 |
| 20260504214736 | 80 | 171 | 5.2 | 7.0 | 0.00 | 0.00 | 0.00 | 68 | 1010.4 |
| 20260504214232 | 80 | 189 | 5.2 | 7.0 | 0.00 | 0.00 | 0.00 | 68 | 1010.6 |
| 20260504213729 | 80 | 184 | 4.3 | 4.3 | 0.00 | 0.00 | 0.00 | 69 | 1010.6 |
| 20260504213225 | 80 | 158 | 5.2 | 6.1 | 0.00 | 0.00 | 0.00 | 67 | 1011.0 |
| 20260504212722 | 80 | 181 | 4.3 | 6.1 | 0.00 | 0.00 | 0.00 | 68 | 1011.2 |
| 20260504212214 | 80 | 146 | 7.8 | 11.3 | 0.00 | 0.00 | 0.00 | 67 | 1011.4 |
| 20260504211711 | 81 | 172 | 2.6 | 4.3 | 0.00 | 0.00 | 0.00 | 68 | 1011.2 |
| 20260504211207 | 81 | 189 | 2.6 | 4.3 | 0.00 | 0.00 | 0.00 | 67 | 1011.4 |